Butte, MT

12:45 PM MDT on September 26, 2016 (GMT -0600)
Mooney

Weather History for KBTM - March, 2014

Change the Weather History Date:

Thursday, March 20, 2014

  Actual Average Record
Temperature  
Mean Temperature 29 °F 33 °F  
Max Temperature 37 °F 45 °F 65 °F (1910)
Min Temperature 20 °F 21 °F -17 °F (1955)
Degree Days  
Heating Degree Days 36 32  
Month to date heating degree days 698 707  
Since 1 July heating degree days 7076 7276  
Cooling Degree Days 0 0  
Month to date cooling degree days 0 0  
Year to date cooling degree days 0 0  
Moisture  
Dew Point 12 °F    
Average Humidity 51    
Maximum Humidity 72    
Minimum Humidity 29    
Precipitation  
Precipitation T in 0.02 in 0.48 in (1952)
Month to date precipitation 0.76 0.44  
Year to date precipitation 1.62 1.34  
Sea Level Pressure  
Sea Level Pressure 30.00 in    
Wind  
Wind Speed 14 mph (NW)    
Max Wind Speed 33 mph    
Max Gust Speed 43 mph    
Visibility 10 miles    
Events      
T = Trace of Precipitation, MM = Missing Value Source: NWS Daily Summary

Daily Weather History Graph

Daily Weather History Graph

Search for Another Location

Airport or City:

Trip Planner

Search our weather history database for the weather conditions in past years. The results will help you decide how hot, cold, wet, or windy it might be!

Date:

Astronomy

Mar. 20, 2014 Rise Set
Actual Time 7:32 AM MDT 7:42 PM MDT
Civil Twilight 7:03 AM MDT 8:12 PM MDT
Nautical Twilight 6:28 AM MDT 8:47 PM MDT
Astronomical Twilight 5:52 AM MDT 9:23 PM MDT
Moon No Moon Rise 9:29 AM MDT (3/20)
Length of Visible Light 13h 09m
Length of Day
12h 09m
Waning Gibbous, 83% of the Moon is Illuminated
Mar 20
Waning Gibbous
Mar 23
Last Quarter
Mar 30
New
Apr 7
First Quarter
Apr 15
Full

Hourly Weather History & Observations

Time (MDT) Temp. Windchill Dew Point Humidity Pressure Visibility Wind Dir Wind Speed Gust Speed Precip Events Conditions
12:53 AM 30.0 °F - 18.0 °F 61% 29.91 in 10.0 mi Calm Calm - N/A   Partly Cloudy
1:53 AM 30.0 °F - 19.0 °F 64% 29.88 in 10.0 mi Calm Calm - N/A   Overcast
2:53 AM 33.1 °F 28.7 °F 18.0 °F 54% 29.84 in 10.0 mi Variable 4.6 mph - N/A   Overcast
3:53 AM 36.0 °F 28.0 °F 18.0 °F 48% 29.81 in 10.0 mi West 11.5 mph 23.0 mph N/A   Overcast
4:53 AM 33.1 °F 26.1 °F 19.9 °F 59% 29.82 in 10.0 mi WNW 8.1 mph - N/A   Mostly Cloudy
5:53 AM 33.1 °F 23.9 °F 21.9 °F 64% 29.83 in 10.0 mi West 12.7 mph - N/A   Overcast
6:53 AM 30.9 °F 23.5 °F 23.0 °F 72% 29.86 in 10.0 mi NW 8.1 mph - N/A   Overcast
7:53 AM 30.0 °F 19.5 °F 17.1 °F 59% 29.90 in 10.0 mi NW 13.8 mph - N/A   Overcast
8:53 AM 28.9 °F 15.4 °F 10.9 °F 47% 29.93 in 10.0 mi NW 21.9 mph 31.1 mph 0.00 in   Mostly Cloudy
9:53 AM 28.9 °F 16.9 °F 12.0 °F 49% 29.98 in 10.0 mi NW 17.3 mph 23.0 mph N/A   Partly Cloudy
10:53 AM 30.9 °F 18.7 °F 8.1 °F 38% 29.97 in 10.0 mi WNW 19.6 mph - N/A   Clear
11:53 AM 30.9 °F 17.2 °F 8.1 °F 38% 29.98 in 10.0 mi NW 25.3 mph 36.8 mph N/A   Clear
12:53 PM 30.9 °F 17.2 °F 8.1 °F 38% 29.99 in 10.0 mi NW 25.3 mph 33.4 mph N/A   Clear
1:53 PM 32.0 °F 17.4 °F 3.9 °F 31% 30.01 in 10.0 mi NW 31.1 mph 40.3 mph N/A   Clear
2:53 PM 32.0 °F 19.8 °F 6.1 °F 34% 30.01 in 10.0 mi NW 20.7 mph 32.2 mph N/A   Scattered Clouds
3:53 PM 30.0 °F 17.9 °F 3.0 °F 32% 30.03 in 10.0 mi WNW 18.4 mph 28.8 mph N/A   Mostly Cloudy
4:53 PM 30.9 °F 19.1 °F 5.0 °F 33% 30.05 in 10.0 mi NW 18.4 mph 28.8 mph N/A   Clear
5:53 PM 30.9 °F 18.7 °F 5.0 °F 33% 30.07 in 10.0 mi NW 19.6 mph 27.6 mph N/A   Scattered Clouds
6:53 PM 28.9 °F 17.7 °F 3.9 °F 35% 30.11 in 10.0 mi NW 15.0 mph 25.3 mph N/A   Mostly Cloudy
7:53 PM 27.0 °F 16.7 °F 7.0 °F 43% 30.13 in 10.0 mi NW 11.5 mph - N/A   Partly Cloudy
8:53 PM 25.0 °F 15.5 °F 14.0 °F 63% 30.18 in 10.0 mi North 9.2 mph - N/A   Partly Cloudy
9:53 PM 23.0 °F 14.7 °F 12.9 °F 65% 30.20 in 10.0 mi WNW 6.9 mph - N/A   Clear
10:53 PM 21.9 °F 14.5 °F 12.9 °F 68% 30.21 in 10.0 mi NW 5.8 mph - N/A   Clear
11:53 PM 21.0 °F 14.6 °F 12.9 °F 71% 30.22 in 10.0 mi WNW 4.6 mph - N/A   Clear